Voltar ao catálogo

STARLINK-2404

AtivoComunicaçõesVLEO
NORAD 48093·PAYLOAD·🇺🇸 United States

Lançado Apr 7, 2021 de Cape Canaveral Space Force Station

Loading…

Próximas Passagens (próximas 24 horas)

TLE

AtualizadoSource: CelesTrak SupGP

Época: Sep 15, 2026, 02:04 UTC

1 48093C 21027B   26258.08659722  .00040860  00000+0  13138-2 0  2581
2 48093  53.1591 353.5233 0001234  91.7935 182.1230 15.31686612    15

Acompanhe STARLINK-2404 em tempo real com AllMySat

Download on the App Store